Regional Weather Roundup
Issued by NWS Boston, MA

Home | Current Version | Previous Version | Text Only | Print | Product List | Glossary On
Versions: 1 2 3 4 5 6 7 8 9 10 11 12 13 14 15 16 17 18 19 20 21 22 23 24 25 26 27 28 29 30 31 32 33 34 35 36 37 38 39 40 41 42 43 44 45 46 47 48 49 50
000
ASUS41 KBOX 281110
RWRBOX

REGIONAL WEATHER ROUNDUP
NATIONAL WEATHER SERVICE TAUNTON MA
600 AM EST FRI NOV 28 2014

NOTE:  "FAIR" INDICATES FEW OR NO CLOUDS BELOW 12,000 FEET WITH NO
SIGNIFICANT WEATHER AND/OR OBSTRUCTIONS TO VISIBILITY.  THE FOLLOWING
OBSERVATION LOCATIONS DO NOT REPORT PRESENT WEATHER...PROVINCETOWN...
SMITHFIELD...BLOCK ISLAND...KEENE...AND OXFORD.

MAZALL-281200-
EASTERN MASSACHUSETTS

CITY           SKY/WX    TMP DP  RH WIND       PRES   REMARKS
BOSTON         FLURRIES  30  27  88 NW12      30.01R WCI  20
BEVERLY        LGT SNOW  28  23  81 NW13      30.00R WCI  17
LAWRENCE       LGT SNOW  27  24  89 N7        30.04R FOG     WCI  19
BEDFORD        FLURRIES  28  25  88 N9        30.01R WCI  19
BLUE HILL        N/A     26  25  96 NW9G21    29.96R WCI  17
NORWOOD        CLOUDY    29  26  89 NW8       30.01R WCI  21
MARSHFIELD     CLOUDY    32  32 100 NW8G16    29.99R WCI  25
PLYMOUTH       CLOUDY    30  29  96 NW10      29.97R WCI  21
TAUNTON        FLURRIES  30  27  88 NW9       29.99R WCI  22
NEW BEDFORD    CLOUDY    30  28  92 VRB7      29.97R WCI  23
$$

MAZALL-281200-
CAPE COD AND THE ISLANDS

CITY           SKY/WX    TMP DP  RH WIND       PRES   REMARKS
FALMOUTH       CLOUDY    32  30  93 NW8G15    29.95S WCI  25
HYANNIS        CLOUDY    35  33  92 NW12G20   29.92S WCI  27
CHATHAM        LGT RAIN  36  35  96 N3        29.93S
PROVINCETOWN   CLOUDY    37  32  81 N16       29.94R WCI  28
NANTUCKET      CLOUDY    37  33  85 NW12      29.93R WCI  29
MARTHAS VNYRD  CLOUDY    33  30  88 NW10      29.96R WCI  25
$$

MAZALL-281200-
CENTRAL AND WESTERN MASSACHUSETTS

CITY           SKY/WX    TMP DP  RH WIND       PRES   REMARKS
WORCESTER      CLOUDY    25  22  88 NW8       29.98R WCI  16
FITCHBURG      CLOUDY    28  24  85 CALM      30.02S
ORANGE           N/A     26  24  92 CALM      30.02R
SPRINGFIELD    MOCLDY    24  23  94 W2        30.04R FOG
WESTFIELD      CLOUDY    29  25  85 CALM      30.04R
NORTH ADAMS    LGT SNOW  26  24  92 W6        30.04R FOG     WCI  19
PITTSFIELD     CLOUDY    25  22  88 NW10      30.00R WCI  15
$$

RIZALL-281200-
RHODE ISLAND

CITY           SKY/WX    TMP DP  RH WIND       PRES   REMARKS
PROVIDENCE     CLOUDY    31  25  78 NW14      30.01R WCI  21
NEWPORT        CLOUDY    32  26  78 NW10      29.98R WCI  24
BLOCK ISLAND   CLOUDY    34  25  69 N12       30.00R WCI  25
SMITHFIELD     CLOUDY    28  19  69 NW8       29.99R WCI  20
WESTERLY       CLOUDY    31  26  82 NW9       30.02R WCI  23
$$

CTZALL-281200-
CONNECTICUT

CITY           SKY/WX    TMP DP  RH WIND       PRES   REMARKS
BRADLEY INTL   CLOUDY    31  24  75 NW7       30.04R WCI  24
HARTFORD       CLOUDY    31  23  72 VRB6      30.07R WCI  25
BRIDGEPORT     FAIR      29  25  85 NW6       30.08R WCI  23
DANBURY        CLEAR     26  20  77 NW5       30.08R WCI  20
GROTON         FLURRIES  30  26  85 NW12      30.03R WCI  20
NEW HAVEN      CLEAR     33  24  69 NW9       30.07R WCI  25
CHESTER        FAIR      30  27  86 NW8       30.04R WCI  23
MERIDEN        CLEAR     29  22  75 NW6       30.07R WCI  23
WILLIMANTIC    MOCLDY    30  24  78 NW7       30.04R WCI  23
OXFORD         CLEAR     25  18  74 NW5       30.06R WCI  19
$$

MEZ002-015-021-024-NHZ003-005-008-011-012-014-VTZ005-008-281200-
NORTHERN NEW ENGLAND

CITY           SKY/WX    TMP DP  RH WIND       PRES   REMARKS
PORTLAND ME    FLURRIES  27  18  69 N7        30.04R WCI  19
BANGOR ME      CLOUDY     9   7  92 N3        30.04R
CONCORD NH     NOT AVBL
MANCHESTER NH  LGT SNOW  27  24  89 NW7       30.01S FOG     WCI  19
NASHUA NH      LGT SNOW  27  26  96 NW7       30.03S FOG     WCI  20
PORTSMOUTH NH  LGT SNOW  26  22  87 NW13      30.02R VSB 1   WCI  15
JAFFREY NH       N/A     24  21  88 NW3       29.99R
KEENE NH       CLOUDY    27  25  93 CALM      30.03R
BURLINGTON VT  LGT SNOW  26  22  84 CALM      30.07R VSB 1
MT. WASHINGTON SNOW       3   3 100 W28         N/A  VSB 1/16WCI -21
$$

NYZ052-076-281200-
EASTERN NEW YORK

CITY           SKY/WX    TMP DP  RH WIND       PRES   REMARKS
ALBANY         MOCLDY    25  20  81 W5        30.09R WCI  19
NEW YORK CITY  PTCLDY    32  23  69 NW14      30.10R WCI  22
$$

ANZALL-281200-
MARINE OBSERVATIONS

STATION/POSITION TIME  TEMP    WIND        PRES    VSBY  WAVE
                       AIR SEA DIR/SP/G                  HT/PER
                 (UTC) (F)     (DEG/KT/KT) (MB)    (MI)  (FT/S)
BOSTON BUOY      1050   32 50  340/ 21/ 23 1014.7R         5/ 6
BUZZARDS BAY     1100          330/ 17/ 20 1015.7R
NANTUCKET SOUND  1050   36 46  330/ 16/ 19 1013.2R         2/ 4
MASS BAY-STELLWA 1004   34 50  330/ 19/ 25   N/A    1 3/8  5/ 5
ISLE OF SHOALS   1100   28     350/ 19/ 21 1015.5R
S OF BLOCK IS    1008      55                N/A           5/10
$$

......................KEY.........................
  SKY/WX - SKY CONDITION/PRESENT WEATHER
  TMP    - TEMPERATURE IN FAHRENHEIT
  DWPT   - DEWPOINT IN FAHRENHEIT
  RH     - RELATIVE HUMIDITY IN PERCENT
  WIND   - DIRECTION AND SPEED IN MPH
  PRES   - MEAN SEA LEVEL PRESSURE IN INCHES OF HG
  WCI    - WIND CHILL INDEX
  VSB    - VISIBILITY IN MILES
  HX     - HEAT INDEX
  TC     - TEMPERATURE IN CELSIUS
  VRB    - VARIABLE WIND DIRECTION
  N/A    - NOT AVAILABLE


USA.gov is the U.S. government's official web portal to all federal, state and local government web resources and services.